Regional Weather Roundup
Issued by NWS Cleveland, OH

Home | Current Version | Previous Version | Text Only | Print | Product List | Glossary Off
Versions: 1 2 3 4 5 6 7 8 9 10 11 12 13 14 15 16 17 18 19 20 21 22 23 24 25 26 27 28 29 30 31 32 33 34 35 36 37 38 39 40 41 42 43 44 45 46 47 48 49 50

000
ASUS41 KCLE 250412
RWRCLE
OHIO REGIONAL WEATHER ROUNDUP
NATIONAL WEATHER SERVICE WILMINGTON, OH
1200 AM EDT SUN JUN 25 2017

NOTE: "FAIR" INDICATES FEW OR NO CLOUDS BELOW 12,000 FEET WITH NO
SIGNIFICANT WEATHER AND/OR OBSTRUCTIONS TO VISIBILITY.

OHZ001>008-015>018-024>027-034-035-043-044-250500-
   NORTHWEST OHIO

CITY           SKY/WX    TMP DP  RH WIND       PRES   REMARKS
DEFIANCE       MOCLDY    60  53  77 CALM      30.05R
FINDLAY        MOCLDY    64  53  67 SW5       30.04R
TOLEDO EXPRESS FAIR      60  51  72 W5        30.03S
TOLEDO EXEC    FAIR      62  50  64 NW7       30.03S
LIMA           FAIR      63  52  67 W9        30.06S
$$

OHZ009>014-019>023-028>033-038-089-250500-
   NORTHEAST OHIO

CITY           SKY/WX    TMP DP  RH WIND       PRES   REMARKS
CLE-HOPKINS    MOCLDY    67  54  63 W5        30.03R
CLE-LAKEFRONT  MOCLDY    70  58  65 NW13      30.00R
CUY CO. ARPT   NOT AVBL
LORAIN-ELYRIA  FAIR      63  52  67 W3        30.03R
ASHTABULA      FAIR      61  58  90 CALM      30.01R
AKRON-CANTON   FAIR      63  54  72 W5        30.03R
WOOSTER        FAIR      63  57  81 W6        30.04R
MANSFIELD      MOCLDY    64  55  72 W5        30.05R
YOUNGSTOWN     MOCLDY    60  57  89 SW3       30.01R
$$

OHZ042-051>053-060>062-070>072-077>081-250500-
  SOUTHWEST OHIO

CITY           SKY/WX    TMP DP  RH WIND       PRES   REMARKS
CINC-COVINGTON FAIR      66  53  63 NW10      30.11R
CINC-LUNKEN    FAIR      69  53  56 NW6       30.11R
HAMILTON       FAIR      60  57  89 SW3       30.11S
DAYTON         FAIR      64  48  56 W12       30.10R
WRIGHT-PAT AFB CLEAR     66  49  54 W9        30.08S
DAYTON GENERAL FAIR      64  50  60 SW5       30.09S
WILMINGTON     FAIR      66  53  63 W9        30.09R
$$

OHZ036-037-039>041-045>050-054>059-063>069-073>076-082>088-250500-
  CENTRAL AND SOUTHEAST OHIO

CITY           SKY/WX    TMP DP  RH WIND       PRES   REMARKS
COLUMBUS       FAIR      68  54  60 W10       30.05R
OSU AIRPORT    FAIR      64  55  72 W8        30.06R
BOLTON FIELD   NOT AVBL
RICKENBACK AFB FAIR      67  54  63 W6        30.06R
NEWARK         FAIR      64  55  72 W6        30.05R
MARION         FAIR      65  54  67 W6        30.06R
LANCASTER      FAIR      67  55  65 W5        30.07R
ZANESVILLE     FAIR      66  58  75 W6        30.04S
NEW PHILLY     MOCLDY    64  60  87 E3        30.04R
$$




USA.gov is the U.S. government's official web portal to all federal, state and local government web resources and services.